Simultaneous Nadir Overpasses (SNOs) Predictions

Prediction of SNOs between AQUA and NPP Satellite Orbit:

Table of predicted SNOs for the next 14.0 days since TLE Epoch: 10/25/2013
Index Date (AQUA) Time (AQUA) Lat,Lon (AQUA) SZA (AQUA ) Date (NPP) Time (NPP) Lat,Lon (NPP) SZA (NPP ) Distance(km) Time Diff (sec)
1 10/25/2013 20:59:59 -73.50, -82.12 69.04 10/25/2013 20:59:06 -73.51, -82.05 69.01 2.71 53
2 10/25/2013 21:49:01 74.72, 88.33 109.75 10/25/2013 21:49:25 74.72, 88.32 109.73 0.26 24
3 10/28/2013 13:16:39 -73.43, 33.56 68.10 10/28/2013 13:16:04 -73.42, 33.53 68.06 1.13 35
4 10/28/2013 14:05:31 75.15,-154.71 110.17 10/28/2013 14:06:12 75.16,-154.65 110.11 1.94 41
5 10/31/2013 05:33:09 -73.83, 150.27 67.66 10/31/2013 05:32:52 -73.83, 150.25 67.64 0.88 17
6 10/31/2013 06:22:03 75.44, -38.09 110.72 10/31/2013 06:23:02 75.45, -38.00 110.64 2.57 59
7 11/02/2013 21:01:49 68.86, 90.22 117.86 11/02/2013 21:00:35 68.95, 89.88 118.01 16.57 74
8 11/02/2013 21:49:41 -74.03, -93.43 67.04 11/02/2013 21:49:43 -74.02, -93.49 67.03 2.15 2
9 11/02/2013 22:35:25 81.82, 132.35 101.39 11/02/2013 22:36:38 81.28, 132.54 101.07 60.27 73
10 11/05/2013 13:17:08 73.05,-147.31 114.72 11/05/2013 13:16:12 73.05,-147.28 114.77 1.31 56
11 11/05/2013 14:06:06 -74.60, 23.76 66.81 11/05/2013 14:06:27 -74.60, 23.78 66.84 0.76 21
12 11/08/2013 05:33:33 73.58, -30.36 114.97 11/08/2013 05:32:57 73.59, -30.29 114.99 2.47 36
